ǯ����,��ʬ��,�Ǿ��������١�,ʿ���������١�,�����������١�,�Ǿ���®(m/s),ʿ����®(m/s),������®(m/s),����(���,���١ʡ��,����(hPa),�߱���(mm),�߱�����(�á�,�߱�����(mm/h),�ߤҤ礦��(hit/���),�ߤҤ礦����(�á�,�ߤҤ礦����(hit/���h),�ҡ�������(���,�ҡ������Ű���V),�Ÿ��Ű���V),�����Ű���V)
2006/07/01,00:00:01,69,135,201,0.2,2.1,4.9,28.7,86.5,1007.4,0.00,0,0.0,0.0,0,0.0,26.6,0.0,12.1,3.470
2006/07/01,00:10:01,46,139,309,0.1,1.9,4.4,28.7,86.4,1007.3,0.00,0,0.0,0.0,0,0.0,26.6,0.0,12.0,3.470
2006/07/01,00:20:01,51,140,219,0.4,2.2,5.9,28.7,86.1,1007.1,0.00,0,0.0,0.0,0,0.0,26.6,0.0,12.0,3.470
2006/07/01,00:30:01,72,140,220,0.4,2.8,6.5,28.9,83.8,1007.1,0.00,0,0.0,0.0,0,0.0,26.9,0.0,12.1,3.469
2006/07/01,00:40:01,19,145,200,0.2,2.5,6.5,28.9,85.0,1007.1,0.00,0,0.0,0.0,0,0.0,26.9,0.0,12.0,3.470
2006/07/01,00:50:01,349,146,242,0.3,2.3,5.5,28.8,85.3,1007.0,0.00,0,0.0,0.0,0,0.0,26.8,0.0,11.8,3.468
2006/07/01,01:00:01,66,137,267,0.2,2.1,4.6,28.8,86.1,1006.9,0.00,0,0.0,0.0,0,0.0,26.8,0.0,12.2,3.470
2006/07/01,01:10:01,334,137,310,0.1,2.0,3.8,28.8,86.7,1006.9,0.00,0,0.0,0.0,0,0.0,26.8,0.0,11.9,3.470
2006/07/01,01:20:01,50,138,196,0.2,1.6,3.5,28.7,86.5,1006.9,0.00,0,0.0,0.0,0,0.0,26.8,0.0,12.0,3.470
2006/07/01,01:30:01,48,136,196,0.3,1.7,3.7,28.5,87.1,1006.8,0.00,0,0.0,0.0,0,0.0,26.6,0.0,12.2,3.469
2006/07/01,01:40:01,337,143,212,0.1,1.6,5.0,28.6,85.2,1006.8,0.00,0,0.0,0.0,0,0.0,26.4,0.0,12.0,3.469
2006/07/01,01:50:01,57,148,202,0.1,1.7,4.4,28.7,84.4,1006.6,0.00,0,0.0,0.0,0,0.0,26.8,0.0,11.9,3.470
2006/07/01,02:00:01,75,154,200,0.1,1.9,4.0,28.6,84.4,1006.6,0.00,0,0.0,0.0,0,0.0,26.4,0.0,12.0,3.469
2006/07/01,02:10:01,337,149,223,0.1,1.9,4.3,28.6,84.7,1006.6,0.00,0,0.0,0.0,0,0.0,26.8,0.0,12.0,3.469
2006/07/01,02:20:01,51,153,213,0.3,1.4,3.4,28.6,85.5,1006.6,0.00,0,0.0,0.0,0,0.0,26.3,0.0,12.2,3.470
2006/07/01,02:30:01,25,146,227,0.0,0.9,1.9,28.5,85.8,1006.7,0.00,0,0.0,0.0,0,0.0,26.6,0.0,12.1,3.472
2006/07/01,02:40:01,25,155,302,0.0,1.3,3.3,28.7,85.4,1006.6,0.00,0,0.0,0.0,0,0.0,26.4,0.0,12.1,3.470
2006/07/01,02:50:01,13,172,345,0.0,1.1,3.4,28.6,85.4,1006.7,0.00,0,0.0,0.0,0,0.0,26.4,0.0,12.2,3.470
2006/07/01,03:00:01,349,164,272,0.0,1.0,2.1,28.5,85.9,1006.7,0.00,0,0.0,0.0,0,0.0,26.1,0.0,12.0,3.470
2006/07/01,03:10:01,11,171,351,0.0,0.7,1.9,28.5,85.8,1006.8,0.00,0,0.0,0.0,0,0.0,26.1,0.0,12.0,3.469
2006/07/01,03:20:01,61,172,324,0.1,1.2,3.1,28.5,85.6,1006.7,0.00,0,0.0,0.0,0,0.0,26.3,0.0,12.2,3.470
2006/07/01,03:30:01,40,171,341,0.1,1.2,2.9,28.3,86.6,1006.7,0.00,0,0.0,0.0,0,0.0,26.3,0.0,11.7,3.469
2006/07/01,03:40:01,60,164,231,0.2,0.9,1.6,28.3,86.8,1006.8,0.00,0,0.0,0.0,0,0.0,26.1,0.0,12.0,3.470
2006/07/01,03:50:01,135,175,247,0.3,1.0,1.7,28.3,87.2,1006.7,0.00,0,0.0,0.0,0,0.0,26.6,0.0,12.2,3.470
2006/07/01,04:00:01,79,162,232,0.1,1.1,2.2,28.4,87.0,1006.7,0.00,0,0.0,0.0,0,0.0,26.1,0.0,12.0,3.469
2006/07/01,04:10:01,115,165,228,0.2,1.5,3.5,28.5,86.5,1006.7,0.00,0,0.0,0.0,0,0.0,26.3,0.0,12.2,3.470
2006/07/01,04:20:01,350,157,296,0.0,1.4,2.8,28.5,86.8,1006.5,0.00,0,0.0,0.0,0,0.0,26.4,0.0,12.0,3.470
2006/07/01,04:30:01,357,173,341,0.0,1.0,2.6,28.4,87.5,1006.4,0.00,0,0.0,0.0,0,0.0,26.4,0.0,12.1,3.472
2006/07/01,04:40:01,340,155,271,0.0,0.8,2.1,28.2,87.4,1006.4,0.00,0,0.0,0.0,0,0.0,26.1,0.0,12.1,3.470
2006/07/01,04:50:01,67,161,286,0.0,1.4,3.8,28.4,86.4,1006.3,0.00,0,0.0,0.0,0,0.0,26.4,0.0,12.1,3.470
2006/07/01,05:00:01,85,192,314,0.1,1.3,3.2,28.5,86.4,1006.2,0.00,0,0.0,0.0,0,0.0,26.4,0.0,12.2,3.470
2006/07/01,05:10:01,30,207,25,0.0,1.0,2.9,28.5,86.4,1006.4,0.00,0,0.0,0.0,0,0.0,26.6,0.0,12.0,3.472
2006/07/01,05:20:01,70,155,289,0.2,0.6,1.4,28.3,87.4,1006.3,0.00,0,0.0,0.0,0,0.0,26.3,0.0,12.2,3.469
2006/07/01,05:30:01,107,162,309,0.0,0.8,2.4,28.2,87.8,1006.2,0.00,0,0.0,0.0,0,0.0,26.1,0.0,12.1,3.470
2006/07/01,05:40:01,31,161,273,0.0,0.9,2.1,28.1,88.5,1006.2,0.00,0,0.0,0.0,0,0.0,25.9,0.0,12.0,3.470
2006/07/01,05:50:01,9,162,313,0.1,1.6,3.8,28.3,87.7,1006.1,0.00,0,0.0,0.0,0,0.0,25.9,0.0,12.1,3.470
2006/07/01,06:00:01,6,182,355,0.1,1.7,5.0,28.6,86.4,1006.2,0.00,0,0.0,0.0,0,0.0,26.4,0.0,12.1,3.472
2006/07/01,06:10:01,2,176,351,0.0,1.4,3.8,28.8,85.8,1006.2,0.00,0,0.0,0.0,0,0.0,27.3,0.0,12.1,3.470
2006/07/01,06:20:01,351,166,341,0.0,1.4,3.9,29.0,85.5,1006.4,0.00,0,0.0,0.0,0,0.0,27.6,0.0,12.1,3.469
2006/07/01,06:30:01,357,175,349,0.0,1.4,4.9,29.2,84.6,1006.4,0.00,0,0.0,0.0,0,0.0,28.3,0.0,12.1,3.469
2006/07/01,06:40:01,5,175,356,0.0,1.1,3.6,29.6,82.3,1006.4,0.00,0,0.0,0.0,0,0.0,29.1,0.0,12.1,3.469
2006/07/01,06:50:01,347,165,315,0.0,1.7,4.8,29.6,81.7,1006.3,0.00,0,0.0,0.0,0,0.0,29.5,0.0,12.1,3.469
2006/07/01,07:00:01,14,176,337,0.2,2.1,4.5,29.8,80.8,1006.2,0.00,0,0.0,0.0,0,0.0,29.6,0.0,12.2,3.468
2006/07/01,07:10:01,118,185,272,0.2,2.7,6.0,29.8,80.5,1006.2,0.00,0,0.0,0.0,0,0.0,29.8,0.0,12.1,3.468
2006/07/01,07:20:01,21,182,344,0.0,2.6,6.8,30.0,80.2,1006.2,0.00,0,0.0,0.0,0,0.0,30.0,0.0,12.0,3.470
2006/07/01,07:30:01,25,193,357,0.1,2.4,5.8,30.2,79.6,1006.2,0.00,0,0.0,0.0,0,0.0,30.3,0.0,11.9,3.468
2006/07/01,07:40:01,14,190,2,0.1,2.3,6.3,30.4,78.2,1006.4,0.00,0,0.0,0.0,0,0.0,30.8,0.0,12.1,3.469
2006/07/01,07:50:01,20,200,9,0.0,1.8,5.2,30.8,77.3,1006.7,0.00,0,0.0,0.0,0,0.0,31.6,0.0,11.9,3.468
2006/07/01,08:00:01,55,207,25,0.0,1.7,5.1,30.9,77.1,1006.6,0.00,0,0.0,0.0,0,0.0,32.3,0.0,12.0,3.468
2006/07/01,08:10:01,30,209,309,0.1,1.9,4.6,30.8,77.7,1006.6,0.00,0,0.0,0.0,0,0.0,31.6,0.0,11.9,3.468
2006/07/01,08:20:01,47,217,25,0.1,1.5,3.6,30.2,79.4,1006.7,0.00,0,0.0,0.0,0,0.0,30.6,0.0,12.1,3.468
2006/07/01,08:30:01,106,210,349,0.1,1.9,4.8,30.0,80.4,1006.8,0.00,0,0.0,0.0,0,0.0,29.3,0.0,12.0,3.472
2006/07/01,08:40:01,51,211,335,0.0,1.7,4.4,29.9,81.0,1006.9,0.00,10,0.0,0.0,0,0.0,29.0,0.0,12.1,3.469
2006/07/01,08:50:01,114,213,335,0.1,2.2,6.0,29.8,79.2,1007.0,0.00,0,0.0,0.0,0,0.0,28.8,0.0,12.1,3.469
2006/07/01,09:00:01,131,201,344,0.1,2.0,5.5,29.8,80.6,1006.9,0.00,0,0.0,0.0,0,0.0,28.6,0.0,12.1,3.469
2006/07/01,09:10:01,18,190,9,0.0,2.1,5.3,31.0,75.9,1006.8,0.00,0,0.0,0.0,0,0.0,31.3,0.0,11.9,3.469
2006/07/01,09:20:01,16,194,9,0.1,2.3,5.4,31.4,75.1,1006.8,0.00,0,0.0,0.0,0,0.0,32.8,0.0,12.1,3.469
2006/07/01,09:30:01,25,208,17,0.1,1.9,4.5,31.7,72.8,1006.7,0.00,0,0.0,0.0,0,0.0,34.0,0.0,11.9,3.468
2006/07/01,09:40:01,81,216,25,0.1,2.0,4.8,32.1,69.9,1006.8,0.00,0,0.0,0.0,0,0.0,34.3,0.0,12.1,3.468
2006/07/01,09:50:01,99,218,288,0.3,2.3,6.5,32.0,70.2,1006.6,0.00,0,0.0,0.0,0,0.0,33.8,0.0,12.1,3.468
2006/07/01,10:00:01,127,214,310,0.3,2.6,6.0,32.0,70.3,1006.5,0.00,0,0.0,0.0,0,0.0,33.8,0.0,11.9,3.467
2006/07/01,10:10:01,35,212,24,0.0,2.3,5.4,32.6,67.1,1006.4,0.00,0,0.0,0.0,0,0.0,34.7,0.0,12.0,3.467
2006/07/01,10:20:01,130,229,38,0.1,2.2,4.8,32.0,71.4,1006.3,0.00,0,0.0,0.0,0,0.0,34.2,0.0,12.0,3.467
2006/07/01,10:30:01,143,238,330,0.2,2.3,5.1,32.5,68.9,1006.4,0.00,0,0.0,0.0,0,0.0,34.8,0.0,12.0,3.467
2006/07/01,10:40:01,68,223,339,0.2,2.3,5.2,32.2,67.3,1006.4,0.00,0,0.0,0.0,0,0.0,34.0,0.0,11.9,3.468
2006/07/01,10:50:01,147,229,44,0.2,2.3,5.1,32.5,66.4,1006.4,0.00,0,0.0,0.0,0,0.0,34.8,0.0,12.0,3.467
2006/07/01,11:00:01,78,246,28,0.1,1.9,4.6,32.6,67.6,1006.3,0.00,0,0.0,0.0,0,0.0,35.3,0.0,12.1,3.467
2006/07/01,11:10:01,142,237,25,0.2,2.3,5.1,32.7,68.4,1006.2,0.00,0,0.0,0.0,0,0.0,35.3,0.0,12.0,3.467
2006/07/01,11:20:01,171,235,340,0.1,2.7,6.8,32.4,70.1,1006.2,0.00,0,0.0,0.0,0,0.0,35.0,0.0,12.0,3.467
2006/07/01,11:30:01,60,235,311,0.0,2.9,7.3,32.6,69.1,1006.2,0.00,0,0.0,0.0,0,0.0,34.8,0.0,12.1,3.468
2006/07/01,11:40:01,77,235,303,0.1,2.8,6.4,32.4,69.1,1006.2,0.00,0,0.0,0.0,0,0.0,34.5,0.0,12.0,3.465
2006/07/01,11:50:01,56,234,43,0.3,3.0,7.0,32.3,67.4,1006.2,0.00,0,0.0,0.0,0,0.0,34.7,0.0,12.1,3.465
2006/07/01,12:00:01,108,233,337,0.5,3.2,6.7,32.7,68.1,1006.2,0.00,0,0.0,0.0,0,0.0,34.8,0.0,11.9,3.467
2006/07/01,12:10:01,166,235,358,0.3,3.1,6.6,32.6,68.0,1006.2,0.00,0,0.0,0.0,0,0.0,35.0,0.0,12.0,3.468
2006/07/01,12:20:01,140,234,355,0.2,2.9,6.8,32.9,65.7,1006.0,0.00,0,0.0,0.0,0,0.0,35.2,0.0,12.0,3.467
2006/07/01,12:30:01,188,238,294,0.7,3.2,7.0,32.9,67.5,1006.0,0.00,0,0.0,0.0,0,0.0,35.2,0.0,11.9,3.467
2006/07/01,12:40:01,113,234,49,0.1,2.9,6.4,33.2,65.2,1006.0,0.00,0,0.0,0.0,0,0.0,35.7,0.0,11.9,3.467
2006/07/01,12:50:01,170,234,2,0.7,3.2,7.2,32.9,66.5,1005.8,0.00,0,0.0,0.0,0,0.0,35.3,0.0,12.0,3.468
2006/07/01,13:00:01,58,235,40,0.3,3.0,7.4,33.1,66.2,1005.8,0.00,0,0.0,0.0,0,0.0,35.2,0.0,12.0,3.467
2006/07/01,13:10:01,71,239,329,0.2,3.0,7.4,33.4,64.0,1005.8,0.00,0,0.0,0.0,0,0.0,35.8,0.0,11.9,3.467
2006/07/01,13:20:01,140,234,313,0.3,3.2,6.4,33.1,63.9,1005.7,0.00,0,0.0,0.0,0,0.0,35.3,0.0,12.0,3.467
2006/07/01,13:30:01,146,233,330,0.3,3.1,6.5,33.1,65.1,1005.6,0.00,0,0.0,0.0,0,0.0,35.5,0.0,12.1,3.468
2006/07/01,13:40:01,139,238,316,0.6,3.0,5.8,33.5,64.1,1005.6,0.00,0,0.0,0.0,0,0.0,35.7,0.0,12.0,3.467
2006/07/01,13:50:01,139,233,328,0.3,2.6,5.6,33.3,65.6,1005.5,0.00,0,0.0,0.0,0,0.0,35.8,0.0,11.9,3.467
2006/07/01,14:00:01,186,250,49,0.2,2.6,5.2,33.3,65.7,1005.4,0.00,0,0.0,0.0,0,0.0,36.0,0.0,12.0,3.465
2006/07/01,14:10:01,145,250,4,0.2,2.8,6.0,33.1,68.7,1005.3,0.00,0,0.0,0.0,0,0.0,35.7,0.0,12.0,3.467
2006/07/01,14:20:01,150,247,353,0.3,2.9,5.6,33.1,65.5,1005.1,0.00,0,0.0,0.0,0,0.0,35.7,0.0,12.0,3.467
2006/07/01,14:30:01,182,247,331,0.3,3.4,6.1,33.0,66.2,1005.0,0.00,0,0.0,0.0,0,0.0,35.2,0.0,12.0,3.467
2006/07/01,14:40:01,146,250,12,0.2,3.2,6.0,32.8,69.4,1005.0,0.00,0,0.0,0.0,0,0.0,34.8,0.0,12.0,3.467
2006/07/01,14:50:01,182,249,315,0.2,3.2,6.0,32.8,68.9,1004.9,0.00,0,0.0,0.0,0,0.0,34.8,0.0,12.0,3.467
2006/07/01,15:00:01,175,256,37,0.1,2.8,5.8,33.2,69.1,1004.9,0.00,0,0.0,0.0,0,0.0,35.5,0.0,12.0,3.468
2006/07/01,15:10:01,97,267,82,0.0,1.5,3.8,32.9,72.4,1004.9,0.00,0,0.0,0.0,0,0.0,36.7,0.0,12.1,3.467
2006/07/01,15:20:01,123,308,117,0.0,1.9,6.4,32.9,72.8,1004.8,0.00,0,0.0,0.0,0,0.0,35.5,0.0,11.9,3.467
2006/07/01,15:30:01,138,313,136,0.0,2.0,5.1,32.7,75.4,1004.7,0.00,0,0.0,0.0,0,0.0,35.0,0.0,11.9,3.468
2006/07/01,15:40:01,134,314,129,0.0,1.8,5.3,32.6,74.3,1004.6,0.00,0,0.0,0.0,0,0.0,35.3,0.0,12.0,3.467
2006/07/01,15:50:01,131,310,129,0.0,1.7,4.8,32.7,73.8,1004.6,0.00,0,0.0,0.0,0,0.0,35.0,0.0,12.1,3.467
2006/07/01,16:00:01,137,314,127,0.0,1.8,4.4,32.6,74.7,1004.4,0.00,0,0.0,0.0,0,0.0,34.8,0.0,12.0,3.468
2006/07/01,16:10:01,146,322,139,0.0,1.8,4.4,32.6,74.7,1004.4,0.00,0,0.0,0.0,0,0.0,34.5,0.0,12.1,3.467
2006/07/01,16:20:01,150,323,144,0.0,1.8,4.7,32.5,74.5,1004.4,0.00,0,0.0,0.0,0,0.0,34.8,0.0,12.0,3.468
2006/07/01,16:30:01,147,313,132,0.0,2.2,4.9,31.9,76.5,1004.5,0.00,0,0.0,0.0,0,0.0,34.5,0.0,11.9,3.467
2006/07/01,16:40:01,142,322,137,0.0,1.6,3.8,32.7,73.7,1004.4,0.00,0,0.0,0.0,0,0.0,35.2,0.0,12.1,3.467
2006/07/01,16:50:01,148,327,137,0.0,1.6,3.5,32.1,76.5,1004.5,0.00,0,0.0,0.0,0,0.0,33.7,0.0,12.1,3.464
2006/07/01,17:00:01,152,322,148,0.0,0.8,4.0,32.4,75.0,1004.3,0.00,0,0.0,0.0,0,0.0,34.3,0.0,12.0,3.468
2006/07/01,17:10:01,109,273,53,0.0,1.5,3.9,32.1,72.7,1004.3,0.00,0,0.0,0.0,0,0.0,33.8,0.0,12.0,3.467
2006/07/01,17:20:01,60,227,30,0.0,1.6,3.7,32.4,67.8,1004.3,0.00,0,0.0,0.0,0,0.0,33.1,0.0,12.1,3.468
2006/07/01,17:30:01,358,167,341,0.0,1.9,4.3,31.8,78.0,1004.3,0.00,0,0.0,0.0,0,0.0,33.1,0.0,12.1,3.468
2006/07/01,17:40:01,329,145,320,0.1,1.9,6.4,31.5,78.9,1004.3,0.00,0,0.0,0.0,0,0.0,32.1,0.0,11.9,3.468
2006/07/01,17:50:01,296,93,244,0.1,1.3,3.5,31.0,80.9,1004.4,0.00,0,0.0,0.0,0,0.0,32.0,0.0,12.0,3.468
2006/07/01,18:00:01,38,151,313,0.0,0.7,2.8,32.1,70.5,1004.4,0.00,0,0.0,0.0,0,0.0,33.0,0.0,12.1,3.467
2006/07/01,18:10:01,343,140,284,0.0,1.2,3.3,31.6,72.0,1004.4,0.00,0,0.0,0.0,0,0.0,32.5,0.0,11.9,3.468
2006/07/01,18:20:01,39,182,356,0.0,1.2,3.0,31.9,69.2,1004.4,0.00,0,0.0,0.0,0,0.0,32.0,0.0,12.0,3.468
2006/07/01,18:30:01,36,173,310,0.1,1.9,4.4,31.3,69.5,1004.5,0.00,0,0.0,0.0,0,0.0,31.3,0.0,12.1,3.469
2006/07/01,18:40:01,9,187,338,0.2,1.9,4.5,31.1,70.3,1004.5,0.00,0,0.0,0.0,0,0.0,30.5,0.0,12.1,3.468
2006/07/01,18:50:01,25,201,357,0.0,2.0,4.7,30.7,72.1,1004.5,0.00,0,0.0,0.0,0,0.0,29.5,0.0,12.0,3.468
2006/07/01,19:00:01,25,191,328,0.0,1.9,4.2,30.5,74.6,1004.5,0.00,0,0.0,0.0,0,0.0,28.8,0.0,12.0,3.468
2006/07/01,19:10:01,4,177,342,0.0,1.6,4.5,30.3,76.7,1004.6,0.00,0,0.0,0.0,0,0.0,28.6,0.0,11.9,3.470
2006/07/01,19:20:01,58,181,352,0.1,1.6,3.6,30.1,78.1,1004.8,0.00,0,0.0,0.0,0,0.0,28.3,0.0,12.0,3.470
2006/07/01,19:30:01,104,187,8,0.1,1.8,3.6,30.0,79.1,1005.0,0.00,0,0.0,0.0,0,0.0,28.1,0.0,12.1,3.470
2006/07/01,19:40:01,9,182,357,0.0,1.5,3.9,29.9,79.9,1005.0,0.00,0,0.0,0.0,0,0.0,27.8,0.0,11.9,3.470
2006/07/01,19:50:01,351,162,310,0.0,1.2,3.2,29.5,81.9,1005.2,0.00,0,0.0,0.0,0,0.0,27.6,0.0,12.1,3.470
2006/07/01,20:00:01,352,157,299,0.0,0.9,2.7,29.3,82.8,1005.4,0.00,0,0.0,0.0,0,0.0,27.3,0.0,12.1,3.469
2006/07/01,20:10:01,354,173,313,0.0,1.0,2.0,29.3,83.4,1005.5,0.00,0,0.0,0.0,0,0.0,27.1,0.0,12.2,3.469
2006/07/01,20:20:01,24,175,258,0.0,1.1,2.5,29.3,84.0,1005.5,0.00,0,0.0,0.0,0,0.0,27.1,0.0,12.0,3.470
2006/07/01,20:30:01,25,175,340,0.0,1.1,2.7,29.2,84.1,1005.5,0.00,0,0.0,0.0,0,0.0,27.1,0.0,12.0,3.470
2006/07/01,20:40:01,66,170,336,0.1,1.5,3.3,29.1,84.9,1005.6,0.00,0,0.0,0.0,0,0.0,26.9,0.0,11.9,3.470
2006/07/01,20:50:01,79,181,275,0.2,1.3,2.6,29.1,84.9,1005.7,0.00,0,0.0,0.0,0,0.0,26.9,0.0,11.9,3.468
2006/07/01,21:00:01,25,179,354,0.1,1.6,3.7,29.1,84.5,1005.7,0.00,0,0.0,0.0,0,0.0,27.1,0.0,12.1,3.470
2006/07/01,21:10:01,79,184,352,0.0,1.6,3.9,29.2,84.1,1005.8,0.00,0,0.0,0.0,0,0.0,26.9,0.0,12.1,3.470
2006/07/01,21:20:01,25,180,351,0.0,1.4,3.1,29.0,84.9,1005.8,0.00,0,0.0,0.0,0,0.0,27.1,0.0,12.1,3.470
2006/07/01,21:30:01,70,183,284,0.1,1.8,4.4,29.1,84.4,1005.9,0.00,0,0.0,0.0,0,0.0,26.9,0.0,11.9,3.472
2006/07/01,21:40:01,41,182,349,0.0,1.3,3.3,29.0,84.8,1005.9,0.00,0,0.0,0.0,0,0.0,26.9,0.0,12.1,3.469
2006/07/01,21:50:01,15,178,320,0.0,1.5,4.5,29.1,84.5,1006.0,0.00,0,0.0,0.0,0,0.0,27.4,0.0,12.0,3.470
2006/07/01,22:00:01,33,181,351,0.1,1.6,3.7,29.0,84.7,1006.0,0.00,0,0.0,0.0,0,0.0,26.9,0.0,12.0,3.472
2006/07/01,22:10:01,13,188,349,0.0,1.8,5.0,29.1,84.6,1006.1,0.00,0,0.0,0.0,0,0.0,26.9,0.0,11.9,3.470
2006/07/01,22:20:01,19,195,296,0.1,2.0,5.2,29.1,85.1,1006.2,0.00,0,0.0,0.0,0,0.0,26.9,0.0,12.0,3.470
2006/07/01,22:30:01,25,204,9,0.1,1.8,6.0,29.0,85.8,1006.2,0.00,0,0.0,0.0,0,0.0,26.9,0.0,11.9,3.469
2006/07/01,22:40:01,59,204,357,0.1,1.8,4.8,29.0,85.8,1006.2,0.00,0,0.0,0.0,0,0.0,26.9,0.0,11.9,3.470
2006/07/01,22:50:01,50,197,283,0.1,1.7,4.2,28.9,86.4,1006.2,0.00,0,0.0,0.0,0,0.0,26.9,0.0,12.0,3.469
2006/07/01,23:00:01,28,184,336,0.0,1.7,4.4,28.9,86.4,1006.2,0.00,0,0.0,0.0,0,0.0,26.8,0.0,12.2,3.470
2006/07/01,23:10:01,18,182,311,0.1,1.5,3.7,28.8,86.2,1005.9,0.00,0,0.0,0.0,0,0.0,26.8,0.0,12.1,3.469
2006/07/01,23:20:01,102,186,2,0.1,1.8,4.3,28.8,85.7,1005.9,0.00,0,0.0,0.0,0,0.0,26.8,0.0,12.0,3.472
2006/07/01,23:30:01,44,187,302,0.2,2.2,5.5,28.9,85.8,1005.8,0.00,0,0.0,0.0,0,0.0,26.8,0.0,12.0,3.470
2006/07/01,23:40:01,25,192,11,0.1,2.2,5.2,28.9,85.2,1005.6,0.00,0,0.0,0.0,0,0.0,26.8,0.0,11.9,3.470
2006/07/01,23:50:01,9,189,291,0.1,2.6,6.5,28.9,85.8,1005.5,0.00,0,0.0,0.0,0,0.0,26.9,0.0,11.9,3.470
2006/07/02,00:00:01,40,198,1,0.1,2.1,5.1,28.8,85.9,1005.5,0.00,0,0.0,0.0,0,0.0,26.8,0.0,11.9,3.469
2006/07/02,00:10:01,14,189,337,0.0,2.1,5.3,28.8,86.5,1005.4,0.00,0,0.0,0.0,0,0.0,26.8,0.0,12.0,3.469
2006/07/02,00:20:01,53,188,315,0.0,1.8,4.8,28.7,86.6,1005.5,0.00,0,0.0,0.0,0,0.0,26.6,0.0,11.9,3.469
2006/07/02,00:30:01,47,201,1,0.1,1.6,4.6,28.6,86.8,1005.5,0.00,0,0.0,0.0,0,0.0,26.6,0.0,12.2,3.469
2006/07/02,00:40:01,96,188,337,0.1,2.0,4.2,28.6,87.0,1005.3,0.00,0,0.0,0.0,0,0.0,26.6,0.0,12.0,3.470
2006/07/02,00:50:01,25,183,352,0.0,2.1,5.5,28.6,86.8,1005.1,0.00,0,0.0,0.0,0,0.0,26.6,0.0,12.2,3.469
2006/07/02,01:00:01,60,183,319,0.1,2.1,4.6,28.6,86.8,1004.9,0.00,0,0.0,0.0,0,0.0,26.4,0.0,12.2,3.469
2006/07/02,01:10:01,25,184,357,0.0,1.9,4.8,28.6,86.6,1004.8,0.00,0,0.0,0.0,0,0.0,26.4,0.0,12.2,3.470
2006/07/02,01:20:01,7,184,338,0.1,2.2,5.3,28.7,85.6,1004.8,0.00,0,0.0,0.0,0,0.0,26.4,0.0,12.1,3.470
2006/07/02,01:30:01,102,186,278,0.2,2.2,7.6,28.7,85.8,1004.7,0.00,0,0.0,0.0,0,0.0,26.6,0.0,12.1,3.470
2006/07/02,01:40:01,129,189,8,0.2,2.0,4.9,28.7,85.2,1004.7,0.00,0,0.0,0.0,0,0.0,26.6,0.0,12.0,3.470
2006/07/02,01:50:01,41,202,337,0.1,1.9,4.5,28.8,84.5,1004.6,0.00,0,0.0,0.0,0,0.0,26.6,0.0,12.0,3.469
2006/07/02,02:00:01,114,211,30,0.0,1.6,4.1,28.6,84.9,1004.5,0.00,0,0.0,0.0,0,0.0,26.6,0.0,12.1,3.470
2006/07/02,02:10:01,39,199,359,0.0,1.3,3.6,28.6,85.4,1004.3,0.00,0,0.0,0.0,0,0.0,26.6,0.0,12.2,3.470
2006/07/02,02:20:01,48,200,15,0.1,1.4,3.4,28.5,85.4,1004.2,0.00,0,0.0,0.0,0,0.0,26.4,0.0,12.1,3.469
2006/07/02,02:30:01,40,201,351,0.0,1.2,3.4,28.5,85.5,1004.4,0.00,0,0.0,0.0,0,0.0,26.3,0.0,12.2,3.470
2006/07/02,02:40:01,44,197,299,0.0,1.3,3.0,28.4,86.6,1004.4,0.00,0,0.0,0.0,0,0.0,26.3,0.0,12.2,3.470
2006/07/02,02:50:01,73,186,269,0.1,1.2,2.6,28.3,86.9,1004.3,0.00,0,0.0,0.0,0,0.0,26.1,0.0,12.0,3.469
2006/07/02,03:00:01,83,179,333,0.1,1.0,2.6,28.3,87.0,1004.4,0.00,0,0.0,0.0,0,0.0,26.1,0.0,12.2,3.472
2006/07/02,03:10:01,89,149,206,0.3,0.9,1.7,28.0,88.3,1004.5,0.00,0,0.0,0.0,0,0.0,25.6,0.0,12.1,3.470
2006/07/02,03:20:01,39,160,319,0.1,1.1,2.3,27.9,88.0,1004.3,0.00,0,0.0,0.0,0,0.0,25.8,0.0,12.2,3.470
2006/07/02,03:30:01,11,193,348,0.0,1.2,3.7,28.3,85.3,1004.4,0.00,0,0.0,0.0,0,0.0,25.9,0.0,12.0,3.470
2006/07/02,03:40:01,25,201,21,0.0,1.1,2.8,28.3,84.5,1004.5,0.00,0,0.0,0.0,0,0.0,26.3,0.0,12.1,3.470
2006/07/02,03:50:01,25,201,10,0.0,1.0,2.4,28.3,84.4,1004.4,0.00,0,0.0,0.0,0,0.0,26.1,0.0,12.2,3.469
2006/07/02,04:00:01,107,161,258,0.3,1.1,2.0,27.8,86.9,1004.1,0.00,0,0.0,0.0,0,0.0,25.9,0.0,12.2,3.470
2006/07/02,04:10:01,25,174,310,0.0,1.1,2.5,27.9,86.2,1004.1,0.00,0,0.0,0.0,0,0.0,25.8,0.0,12.0,3.470
2006/07/02,04:20:01,51,173,244,0.1,1.3,3.9,27.9,85.8,1004.0,0.00,0,0.0,0.0,0,0.0,25.6,0.0,12.1,3.470
2006/07/02,04:30:01,25,188,6,0.1,1.8,4.3,28.2,84.8,1004.0,0.00,0,0.0,0.0,0,0.0,25.8,0.0,11.9,3.470
2006/07/02,04:40:01,25,202,4,0.0,1.5,3.8,28.2,84.5,1004.1,0.00,0,0.0,0.0,0,0.0,26.1,0.0,12.0,3.470
2006/07/02,04:50:01,25,192,351,0.0,1.4,3.4,28.0,85.7,1004.0,0.00,0,0.0,0.0,0,0.0,25.8,0.0,12.2,3.470
2006/07/02,05:00:01,14,193,4,0.0,1.0,2.4,28.0,85.7,1004.1,0.00,0,0.0,0.0,0,0.0,25.8,0.0,12.1,3.470
2006/07/02,05:10:01,25,180,282,0.0,1.5,3.2,27.8,86.2,1003.9,0.00,0,0.0,0.0,0,0.0,25.8,0.0,12.2,3.469
2006/07/02,05:20:01,50,179,259,0.0,1.3,3.6,27.9,86.0,1003.9,0.00,0,0.0,0.0,0,0.0,25.6,0.0,12.2,3.469
2006/07/02,05:30:01,20,198,12,0.0,1.5,4.1,28.0,85.2,1003.9,0.00,0,0.0,0.0,0,0.0,25.9,0.0,12.1,3.469
2006/07/02,05:40:01,17,192,3,0.0,1.3,3.7,28.1,85.2,1004.1,0.00,0,0.0,0.0,0,0.0,25.9,0.0,12.1,3.469
2006/07/02,05:50:01,36,190,288,0.1,1.6,6.1,28.1,85.2,1004.0,0.00,0,0.0,0.0,0,0.0,25.8,0.0,12.0,3.472
2006/07/02,06:00:01,23,194,2,0.1,1.7,4.6,28.2,84.5,1004.1,0.00,0,0.0,0.0,0,0.0,26.3,0.0,12.2,3.470
2006/07/02,06:10:01,24,190,332,0.1,1.6,4.4,28.4,83.7,1004.3,0.00,0,0.0,0.0,0,0.0,26.8,0.0,11.9,3.470
2006/07/02,06:20:01,28,197,316,0.0,1.3,3.9,28.7,83.4,1004.4,0.00,0,0.0,0.0,0,0.0,27.6,0.0,12.1,3.470
2006/07/02,06:30:01,85,205,341,0.0,1.9,4.9,28.8,83.3,1004.4,0.00,0,0.0,0.0,0,0.0,27.9,0.0,12.1,3.469
2006/07/02,06:40:01,44,204,18,0.0,1.8,4.7,29.0,82.5,1004.5,0.00,0,0.0,0.0,0,0.0,28.3,0.0,12.1,3.469
2006/07/02,06:50:01,47,206,24,0.0,1.4,3.5,29.2,83.0,1004.7,0.00,0,0.0,0.0,0,0.0,28.8,0.0,12.0,3.468
2006/07/02,07:00:01,25,203,21,0.0,1.3,4.0,29.5,81.8,1004.9,0.00,0,0.0,0.0,0,0.0,29.5,0.0,12.2,3.468
2006/07/02,07:10:01,41,215,35,0.0,1.2,4.0,29.6,82.6,1004.8,0.00,0,0.0,0.0,0,0.0,30.0,0.0,12.1,3.468
2006/07/02,07:20:01,50,214,28,0.0,1.2,2.9,29.9,81.9,1004.8,0.00,0,0.0,0.0,0,0.0,30.6,0.0,11.9,3.467
2006/07/02,07:30:01,52,217,34,0.2,1.5,3.4,29.9,81.9,1004.8,0.00,0,0.0,0.0,0,0.0,30.8,0.0,11.9,3.468
2006/07/02,07:40:01,53,222,21,0.1,1.8,4.3,29.8,82.7,1004.9,0.00,0,0.0,0.0,0,0.0,30.8,0.0,12.1,3.468
2006/07/02,07:50:01,157,234,25,0.3,2.0,4.2,29.8,82.6,1004.9,0.00,0,0.0,0.0,0,0.0,30.8,0.0,11.8,3.468
2006/07/02,08:00:01,166,233,310,0.5,2.4,5.1,29.9,81.8,1004.9,0.00,0,0.0,0.0,0,0.0,30.8,0.0,12.1,3.469
2006/07/02,08:10:01,129,233,9,0.1,2.1,5.5,30.2,79.8,1004.9,0.00,0,0.0,0.0,0,0.0,30.8,0.0,12.0,3.469
2006/07/02,08:20:01,50,228,299,0.1,2.4,5.5,30.3,77.1,1004.8,0.00,0,0.0,0.0,0,0.0,31.3,0.0,11.9,3.468
2006/07/02,08:30:01,50,230,304,0.2,2.7,6.0,30.3,78.0,1004.8,0.00,0,0.0,0.0,0,0.0,31.1,0.0,12.0,3.467
2006/07/02,08:40:01,171,234,288,0.5,2.7,6.4,30.3,79.8,1004.9,0.00,0,0.0,0.0,0,0.0,31.3,0.0,12.0,3.469
2006/07/02,08:50:01,181,244,343,0.1,2.5,4.7,30.4,79.6,1004.9,0.00,0,0.0,0.0,0,0.0,31.8,0.0,11.9,3.469
2006/07/02,09:00:01,81,249,10,0.1,2.3,4.4,30.6,79.5,1004.8,0.00,0,0.0,0.0,0,0.0,32.3,0.0,12.1,3.468
2006/07/02,09:10:01,174,246,318,0.2,2.6,5.0,30.5,78.9,1004.8,0.00,0,0.0,0.0,0,0.0,32.3,0.0,11.9,3.468
2006/07/02,09:20:01,130,246,25,0.2,2.7,4.8,30.6,78.8,1004.9,0.00,0,0.0,0.0,0,0.0,32.1,0.0,11.9,3.468
2006/07/02,09:30:01,191,247,312,0.6,2.7,5.1,30.6,79.4,1004.9,0.00,0,0.0,0.0,0,0.0,32.3,0.0,12.0,3.467
2006/07/02,09:40:01,193,245,324,0.1,2.6,5.3,30.7,79.4,1004.9,0.00,0,0.0,0.0,0,0.0,32.3,0.0,11.9,3.472
2006/07/02,09:50:01,103,263,73,0.0,1.6,4.2,31.3,76.3,1004.9,0.00,0,0.0,0.0,0,0.0,34.0,0.0,12.1,3.468
2006/07/02,10:00:01,93,266,89,0.0,1.6,4.5,31.6,76.0,1004.9,0.00,0,0.0,0.0,0,0.0,34.5,0.0,12.0,3.467
2006/07/02,10:10:01,85,266,80,0.0,1.5,4.7,31.7,74.4,1004.9,0.00,0,0.0,0.0,0,0.0,35.3,0.0,12.0,3.467
2006/07/02,10:20:01,110,272,81,0.0,1.9,5.4,31.6,75.5,1004.9,0.00,0,0.0,0.0,0,0.0,34.5,0.0,12.0,3.465
2006/07/02,10:30:01,101,256,73,0.0,1.7,4.0,31.9,75.8,1004.9,0.00,0,0.0,0.0,0,0.0,35.0,0.0,12.0,3.467
2006/07/02,10:40:01,79,257,61,0.0,2.0,4.4,32.0,72.4,1004.9,0.00,0,0.0,0.0,0,0.0,35.0,0.0,11.9,3.465
2006/07/02,10:50:01,126,269,60,0.1,2.5,5.6,31.4,75.7,1005.0,0.00,0,0.0,0.0,0,0.0,34.3,0.0,12.1,3.468
2006/07/02,11:00:01,129,287,100,0.0,1.8,4.9,31.7,76.9,1005.0,0.00,0,0.0,0.0,0,0.0,35.0,0.0,11.9,3.467
2006/07/02,11:10:01,117,292,110,0.0,1.6,4.9,32.0,74.6,1005.0,0.00,0,0.0,0.0,0,0.0,35.2,0.0,12.1,3.467
2006/07/02,11:20:01,83,263,79,0.0,2.3,6.4,31.2,78.5,1004.9,0.00,0,0.0,0.0,0,0.0,34.7,0.0,12.1,3.467
2006/07/02,11:30:01,114,265,37,0.0,2.8,5.4,31.1,78.2,1004.8,0.00,0,0.0,0.0,0,0.0,33.8,0.0,12.0,3.465
2006/07/02,11:40:01,117,268,69,0.1,2.6,5.3,31.9,75.9,1004.9,0.00,0,0.0,0.0,0,0.0,34.3,0.0,12.0,3.468
2006/07/02,11:50:01,80,257,65,0.0,2.0,5.1,32.3,72.9,1004.8,0.00,0,0.0,0.0,0,0.0,35.2,0.0,12.1,3.467
2006/07/02,12:00:01,98,253,60,0.1,2.4,5.7,32.0,75.0,1004.8,0.00,0,0.0,0.0,0,0.0,35.0,0.0,12.0,3.465
2006/07/02,12:10:01,73,249,51,0.0,2.4,5.3,31.9,75.8,1004.7,0.00,0,0.0,0.0,0,0.0,34.8,0.0,12.0,3.467
2006/07/02,12:20:01,69,246,60,0.0,2.6,5.1,31.9,75.9,1004.6,0.00,0,0.0,0.0,0,0.0,34.7,0.0,12.0,3.467
2006/07/02,12:30:01,69,247,65,0.1,2.7,6.3,31.9,76.5,1004.6,0.00,0,0.0,0.0,0,0.0,34.7,0.0,11.9,3.468
2006/07/02,12:40:01,94,250,7,0.1,2.7,5.2,32.0,73.0,1004.5,0.00,0,0.0,0.0,0,0.0,35.0,0.0,11.9,3.467
2006/07/02,12:50:01,133,251,34,0.1,2.6,5.0,32.2,72.2,1004.4,0.00,0,0.0,0.0,0,0.0,34.8,0.0,12.0,3.468
2006/07/02,13:00:01,93,254,58,0.1,2.4,5.2,32.1,74.0,1004.4,0.00,0,0.0,0.0,0,0.0,35.0,0.0,12.0,3.467
2006/07/02,13:10:01,82,260,64,0.0,2.2,4.8,32.4,71.7,1004.3,0.00,0,0.0,0.0,0,0.0,35.3,0.0,11.9,3.468
2006/07/02,13:20:01,103,264,70,0.0,2.0,4.3,32.3,72.4,1004.2,0.00,0,0.0,0.0,0,0.0,36.0,0.0,11.9,3.467
2006/07/02,13:30:01,91,264,58,0.1,2.1,4.8,32.1,71.9,1004.1,0.00,0,0.0,0.0,0,0.0,35.3,0.0,12.1,3.467
2006/07/02,13:40:01,149,266,77,0.1,2.3,4.9,31.9,74.4,1004.0,0.00,0,0.0,0.0,0,0.0,34.7,0.0,11.9,3.468
2006/07/02,13:50:01,168,268,48,0.0,2.5,4.8,31.7,77.2,1004.0,0.00,0,0.0,0.0,0,0.0,34.7,0.0,11.9,3.465
2006/07/02,14:00:01,164,269,60,0.1,2.6,5.4,31.6,78.2,1003.8,0.00,0,0.0,0.0,0,0.0,34.5,0.0,12.0,3.467
2006/07/02,14:10:01,123,268,37,0.2,2.7,4.8,31.6,74.9,1003.8,0.00,0,0.0,0.0,0,0.0,34.3,0.0,12.1,3.468
2006/07/02,14:20:01,202,266,54,0.3,2.7,5.0,31.6,76.3,1003.7,0.00,0,0.0,0.0,0,0.0,34.2,0.0,11.9,3.467
2006/07/02,14:30:01,178,270,90,0.0,2.1,5.1,32.1,75.1,1003.6,0.00,0,0.0,0.0,0,0.0,34.5,0.0,11.9,3.468
2006/07/02,14:40:01,85,260,25,0.0,1.7,5.0,32.9,72.6,1003.5,0.00,0,0.0,0.0,0,0.0,35.8,0.0,12.0,3.468
2006/07/02,14:50:01,95,273,82,0.0,1.9,5.1,32.8,73.4,1003.5,0.00,0,0.0,0.0,0,0.0,35.8,0.0,11.9,3.467
2006/07/02,15:00:01,77,254,73,0.1,2.1,4.8,32.8,74.0,1003.4,0.00,0,0.0,0.0,0,0.0,35.3,0.0,12.0,3.467